Location: Petruro
(41.0333°N, 14.7833°E)
Time: 15:00:39
(UTC+00:00)

DELTA 2 R/B (1) - Pass Details

Date: 20 June 2021
Orbit: 790 x 803 km, 39.6° (Epoch: 04 August)

Event Time Altitude Azimuth Distance (km) Brightness Sun altitude
Exits shadow 01:57:49 - 271° (W) 2,659 5.9 -13.8°
Reaches altitude 10° 01:58:39 10° 270° (W) 2,348 5.6 -13.7°
Maximum altitude 02:04:11 76° 186° (S) 816 3.5 -13.0°
Drops below altitude 10° 02:09:43 10° 101° (ESE) 2,352 6.5 -12.3°
Sets 02:12:12 0° 100° (E) 3,283 7.3 -11.9°
